Location: Unspecified
(0.0000°N, 0.0000°E)
Time: 05:26:22
(UTC+00:00)

Tiros 1 - Pass Details

Date: 01 October 2020
Orbit: 630 x 663 km, 48.4° (Epoch: 28 October)

Event Time Altitude Azimuth Distance (km) Brightness Sun altitude
Rises 23:10:49 0° 296° (WNW) 2,980 - -79.7°
Reaches altitude 10° 23:13:36 10° 281° (WNW) 2,068 - -80.3°
Maximum altitude 23:17:17 22° 231° (SW) 1,424 - -81.2°
Drops below altitude 10° 23:20:59 10° 180° (S) 2,062 - -82.0°
Sets 23:23:45 0° 164° (SSE) 2,969 - -82.6°
